PBO Station Position Time Series. Reference Frame : NAM14
Format Version,1.1.1
4-character ID,MIK2
Station name,Mikis_Fjord
Begin Date, 2009-08-08
End Date, 2023-04-27
Release Date, 2023-06-22
Reference position, 68.1402797962 North Latitude, -31.4518207948 East Longitude, 815.78346 meters elevation,
Date, North (mm), East (mm), Vertical (mm), North Std. Deviation (mm), East Std. Deviation (mm),              Vertical Std. Deviation (mm), Quality,
2009-08-08,0.00, 0.00, 0.00, 2.32, 1.59, 8.45, repro,
2009-08-09,2.52, -0.02, -0.29, 2.35, 1.59, 8.44, repro,
2009-08-10,0.78, -1.36, 3.78, 2.28, 1.58, 8.41, repro,
2009-08-11,2.34, -0.03, 0.99, 2.29, 1.60, 8.45, repro,
2009-08-12,1.00, 0.87, 0.69, 2.54, 1.74, 9.68, repro,
2009-08-13,1.34, 0.38, 2.27, 2.24, 1.56, 8.29, repro,
2009-08-14,2.03, 0.36, 13.91, 2.24, 1.56, 8.18, repro,
2009-08-15,1.97, -0.62, 8.53, 2.26, 1.57, 8.58, repro,
2009-08-16,3.58, -1.66, 10.69, 2.32, 1.64, 9.00, repro,
2009-08-17,3.08, -1.42, 13.67, 2.30, 1.60, 8.74, repro,
2009-08-18,4.66, -1.21, 14.92, 2.24, 1.56, 8.30, repro,
2009-08-19,3.56, -1.48, 10.98, 2.32, 1.60, 8.33, repro,
2009-08-20,2.62, -0.12, 8.26, 2.27, 1.57, 8.31, repro,
2009-08-21,4.23, 0.76, 9.82, 2.31, 1.62, 8.43, repro,
2009-08-22,1.77, 0.32, 9.23, 2.31, 1.60, 8.42, repro,
2009-08-23,1.71, 0.19, 10.79, 2.31, 1.62, 8.46, repro,
2009-08-24,2.26, 0.37, 11.30, 2.25, 1.58, 8.30, repro,
2009-08-25,4.63, -0.31, 9.80, 2.30, 1.62, 8.40, repro,
2009-08-26,0.68, -0.53, 13.96, 2.31, 1.61, 8.37, repro,
2009-08-27,2.64, -1.06, -2.15, 2.49, 1.75, 9.03, repro,
2009-08-28,2.34, -1.04, 7.15, 2.26, 1.59, 8.13, repro,
2009-08-29,3.06, -0.41, 2.41, 2.25, 1.58, 8.42, repro,
2009-08-30,1.46, -0.72, 10.24, 2.46, 1.72, 8.87, repro,
2009-08-31,3.22, -0.01, 12.73, 2.23, 1.58, 8.04, repro,
2009-09-01,0.28, 0.79, 13.77, 2.20, 1.56, 7.96, repro,
2009-09-02,0.64, 0.27, 16.16, 2.33, 1.66, 8.42, repro,
2009-09-03,1.12, -0.16, 12.49, 2.25, 1.61, 8.25, repro,
2009-09-04,1.95, 0.62, 13.45, 2.26, 1.60, 8.22, repro,
2009-09-05,2.39, -0.49, 15.51, 2.23, 1.59, 8.30, repro,
2009-09-06,0.55, -0.52, 14.45, 2.23, 1.58, 8.22, repro,
2009-09-07,0.59, 1.10, 6.51, 2.33, 1.64, 8.78, repro,
2009-09-08,-0.60, 1.59, 11.80, 2.32, 1.63, 8.75, repro,
2009-09-09,-2.40, 1.66, 8.80, 2.39, 1.70, 8.87, repro,
2009-09-10,1.65, 1.29, 5.83, 2.39, 1.69, 8.96, repro,
2009-09-11,-1.17, 1.12, 10.56, 2.26, 1.58, 8.07, repro,
2009-09-12,-0.62, 1.44, 8.40, 2.22, 1.56, 8.07, repro,
2009-09-13,3.54, -0.04, 1.19, 2.39, 1.72, 8.84, repro,
2009-09-14,2.15, 1.19, 10.76, 2.38, 1.74, 8.52, repro,
2009-09-15,-0.80, 1.35, -0.38, 2.28, 1.63, 8.57, repro,
2009-09-16,1.74, 1.00, 2.32, 2.23, 1.59, 8.11, repro,
2009-09-17,1.24, -0.31, 13.85, 2.31, 1.61, 8.31, repro,
2009-09-18,1.67, -0.29, 18.52, 2.30, 1.65, 8.46, repro,
2009-09-19,1.13, 1.06, 10.25, 2.27, 1.62, 8.39, repro,
2009-09-20,-0.02, 1.79, 17.42, 2.25, 1.61, 8.25, repro,
2009-09-21,0.38, 1.70, 17.98, 2.27, 1.64, 8.60, repro,
2009-09-22,0.81, -0.06, 16.96, 2.27, 1.63, 8.48, repro,
2009-09-23,-0.33, 0.75, 17.08, 2.24, 1.60, 8.32, repro,
2009-09-24,-0.63, 1.44, 15.33, 2.21, 1.56, 8.11, repro,
2009-09-25,-1.33, 0.19, 22.09, 2.24, 1.58, 8.31, repro,
2009-09-26,1.18, 0.92, 21.12, 2.23, 1.58, 8.16, repro,
2009-09-27,-0.15, 1.15, 13.68, 2.34, 1.70, 8.79, repro,
2009-09-28,-0.15, 1.02, 7.03, 2.31, 1.66, 8.52, repro,
2009-09-29,1.02, 0.65, 12.74, 2.25, 1.59, 8.26, repro,
2009-09-30,1.55, 0.84, 6.89, 2.27, 1.65, 8.39, repro,
2009-10-01,-0.27, 0.17, 11.55, 2.27, 1.62, 8.30, repro,
2009-10-02,0.17, -0.20, 13.60, 2.27, 1.65, 8.61, repro,
2009-10-03,1.70, 0.13, 5.39, 2.24, 1.59, 8.23, repro,
2009-10-04,3.01, 1.30, 10.22, 2.26, 1.64, 8.27, repro,
2009-10-05,1.25, 1.22, 11.39, 2.24, 1.60, 8.28, repro,
2009-10-06,1.37, 2.04, 11.88, 2.19, 1.57, 8.05, repro,
2009-10-07,1.16, 1.83, 5.46, 2.23, 1.61, 8.32, repro,
2009-10-08,0.41, 3.51, 5.30, 2.28, 1.66, 8.52, repro,
2009-10-09,1.66, 2.57, 0.41, 2.27, 1.64, 8.37, repro,
2009-10-10,3.45, 4.09, -1.29, 2.26, 1.59, 8.22, repro,
2009-10-11,2.43, 3.02, 2.44, 2.24, 1.59, 8.16, repro,
2009-10-12,-0.10, 3.05, 8.40, 2.19, 1.57, 7.98, repro,
2009-10-13,-1.51, 2.16, 16.09, 2.26, 1.64, 8.26, repro,
2009-10-14,2.49, 5.08, 9.41, 2.26, 1.68, 8.28, repro,
2009-10-15,-1.00, 0.01, 23.12, 2.37, 1.77, 8.61, repro,
2009-10-16,3.30, 2.65, 14.49, 2.36, 1.68, 8.62, repro,
2009-10-17,0.81, 1.22, 10.51, 2.33, 1.69, 8.32, repro,
2009-10-18,3.95, 3.73, 6.78, 2.24, 1.60, 8.12, repro,
2009-10-19,2.38, 2.28, 10.74, 2.32, 1.70, 8.36, repro,
2009-10-20,0.82, 1.52, 12.15, 2.43, 1.80, 9.00, repro,
2009-10-21,0.82, 1.42, 5.96, 2.30, 1.65, 8.35, repro,
2009-10-22,3.60, 1.04, 10.53, 2.92, 2.09, 9.68, repro,
2009-10-23,0.53, 1.64, 9.15, 2.50, 1.77, 9.06, repro,
2009-10-24,0.46, 1.58, 4.09, 2.44, 1.78, 8.87, repro,
2009-10-25,-0.26, 0.55, 10.08, 2.37, 1.72, 8.60, repro,
2009-10-26,0.81, 1.30, 9.68, 2.39, 1.73, 8.51, repro,
2009-10-27,1.37, 0.84, 9.10, 2.34, 1.66, 8.40, repro,
2009-10-28,0.80, 1.57, 8.20, 2.29, 1.66, 8.41, repro,
2009-10-29,0.80, 2.72, 5.57, 2.39, 1.71, 8.62, repro,
2009-10-30,2.22, 2.14, 10.20, 2.90, 2.00, 10.59, repro,
2009-10-31,2.40, 2.73, 18.04, 2.42, 1.75, 8.98, repro,
2009-11-01,1.51, 2.37, 20.09, 2.41, 1.72, 9.09, repro,
2009-11-02,0.04, 3.41, 20.23, 2.35, 1.69, 8.72, repro,
2009-11-03,-1.19, 1.75, 19.51, 2.37, 1.70, 8.88, repro,
2009-11-04,1.97, 2.32, 13.36, 2.40, 1.70, 9.10, repro,
2009-11-05,2.18, 4.36, 5.25, 2.35, 1.68, 8.47, repro,
2009-11-06,1.60, 2.45, 14.79, 2.45, 1.77, 9.05, repro,
2009-11-07,2.63, 0.56, 8.20, 2.36, 1.70, 8.43, repro,
2009-11-08,-0.04, 0.99, 7.48, 2.72, 1.96, 9.67, repro,
2009-11-09,-0.59, 2.36, 12.58, 2.41, 1.75, 8.95, repro,
2009-11-10,0.90, 0.86, 7.84, 2.45, 1.82, 9.16, repro,
2009-11-11,0.27, 0.77, 1.49, 2.32, 1.65, 8.39, repro,
2009-11-12,1.15, 0.18, 2.18, 2.43, 1.74, 8.60, repro,
2009-11-13,1.22, -0.10, 4.22, 2.31, 1.67, 8.32, repro,
2009-11-14,1.29, 0.17, 4.49, 2.67, 1.99, 10.08, repro,
2009-11-15,-0.99, 0.31, 5.88, 2.47, 1.78, 8.96, repro,
2009-11-16,1.32, 3.02, 7.83, 2.31, 1.70, 8.36, repro,
2009-11-17,0.97, 3.77, 2.98, 2.37, 1.69, 8.40, repro,
2009-11-18,-0.39, 1.58, 1.99, 2.39, 1.71, 8.40, repro,
2009-11-19,2.46, 2.06, 0.45, 2.53, 1.82, 9.50, repro,
2009-11-20,1.01, -0.56, 4.23, 2.36, 1.70, 8.72, repro,
2009-11-21,-0.66, 1.33, 0.86, 2.42, 1.72, 8.83, repro,
2009-11-22,-1.44, 0.64, 2.01, 2.37, 1.68, 8.48, repro,
2009-11-23,0.06, 0.11, -0.37, 2.28, 1.62, 8.19, repro,
2009-11-24,0.71, 0.63, 0.16, 2.44, 1.70, 8.80, repro,
2009-11-25,0.99, 2.03, -0.31, 2.47, 1.78, 8.74, repro,
2009-11-26,1.25, 2.46, 4.37, 2.49, 1.83, 9.21, repro,
2009-11-27,-1.46, 0.45, 3.54, 2.31, 1.64, 8.31, repro,
2009-11-28,-0.06, 1.38, 3.06, 2.30, 1.65, 8.28, repro,
2009-11-29,3.56, 1.04, -1.12, 2.27, 1.59, 8.26, repro,
2009-11-30,0.53, 0.77, 2.47, 2.24, 1.59, 8.09, repro,
2009-12-01,-0.52, 1.52, 6.71, 2.25, 1.60, 8.33, repro,
2009-12-02,0.03, 1.23, 1.35, 2.20, 1.55, 8.05, repro,
2009-12-03,0.14, 1.56, -0.11, 2.20, 1.57, 8.04, repro,
2009-12-04,1.21, 1.40, 1.03, 2.21, 1.56, 8.03, repro,
2009-12-05,-0.99, 2.69, 3.97, 2.27, 1.63, 8.51, repro,
2009-12-06,2.32, 3.37, -1.75, 2.31, 1.66, 8.50, repro,
2009-12-07,1.17, 3.97, -0.35, 2.29, 1.64, 8.54, repro,
2009-12-08,-1.01, 3.79, 1.30, 2.22, 1.60, 8.17, repro,
2009-12-09,-2.29, 4.36, 1.00, 2.32, 1.64, 8.45, repro,
2009-12-10,-0.65, 3.68, -0.15, 2.25, 1.61, 8.44, repro,
2009-12-11,3.00, 3.48, -4.16, 2.26, 1.65, 8.16, repro,
2009-12-12,7.03, 2.19, 1.01, 2.33, 1.68, 8.59, repro,
2009-12-13,7.15, -0.64, 6.94, 2.24, 1.65, 8.25, repro,
2009-12-14,6.88, 3.24, -11.88, 2.31, 1.65, 8.54, repro,
2009-12-15,3.34, 0.81, -7.19, 2.28, 1.62, 8.31, repro,
2009-12-16,3.16, 2.31, -4.44, 2.34, 1.71, 8.53, repro,
2009-12-17,2.00, 1.35, 3.46, 2.31, 1.63, 8.49, repro,
2009-12-18,1.26, -0.47, -4.05, 2.24, 1.58, 8.33, repro,
2009-12-19,4.48, 1.28, -2.71, 2.41, 1.71, 8.80, repro,
2009-12-20,0.96, 0.17, 0.69, 2.35, 1.68, 8.53, repro,
2009-12-21,-0.38, 2.65, 2.30, 2.37, 1.70, 8.87, repro,
2009-12-22,-1.33, 2.58, 6.02, 2.39, 1.73, 8.82, repro,
2009-12-23,0.55, 3.36, 3.42, 2.35, 1.69, 8.94, repro,
2009-12-24,0.23, 1.81, 2.88, 2.29, 1.62, 8.49, repro,
2009-12-25,3.07, 2.26, 3.04, 2.37, 1.69, 8.52, repro,
2009-12-26,3.90, 2.34, -2.08, 2.31, 1.64, 8.35, repro,
2009-12-27,4.13, 3.03, 5.44, 2.33, 1.63, 8.84, repro,
2009-12-28,2.97, 1.70, 7.43, 2.28, 1.61, 8.53, repro,
2009-12-29,2.29, 2.52, 0.41, 2.30, 1.61, 8.62, repro,
2009-12-30,4.96, 1.35, 0.85, 2.24, 1.57, 8.18, repro,
2009-12-31,3.86, -0.39, 2.58, 2.24, 1.57, 8.19, repro,
2010-01-01,6.99, 0.31, 2.55, 2.30, 1.59, 8.33, repro,
2010-01-02,6.90, 2.80, -2.38, 2.39, 1.69, 9.24, repro,
2010-01-03,6.89, 1.44, -3.12, 2.37, 1.63, 8.45, repro,
2010-01-04,8.23, 1.33, 4.02, 2.29, 1.62, 8.41, repro,
2010-01-05,6.31, 2.95, 8.12, 2.26, 1.60, 8.27, repro,
2010-01-06,5.05, 2.02, 6.04, 2.28, 1.60, 8.48, repro,
2010-01-07,5.81, 3.04, 11.24, 2.29, 1.60, 8.54, repro,
2010-01-08,8.33, 3.31, 13.62, 2.42, 1.71, 8.71, repro,
2010-01-09,5.79, 5.25, 13.25, 2.23, 1.58, 8.28, repro,
2010-01-10,11.19, 7.06, 15.60, 2.22, 1.60, 8.21, repro,
2010-01-11,8.73, 8.75, 2.18, 2.40, 1.70, 8.72, repro,
2010-01-12,7.52, 9.15, 6.04, 2.28, 1.62, 8.35, repro,
2010-01-13,10.03, 11.54, 7.13, 2.44, 1.73, 9.02, repro,
2010-01-14,5.90, 11.04, 7.05, 2.36, 1.73, 8.45, repro,
2010-01-15,7.09, 12.01, 6.90, 2.29, 1.65, 8.20, repro,
2010-01-16,10.02, 12.41, 9.34, 2.26, 1.58, 8.36, repro,
2010-01-17,2.47, 10.78, 11.45, 2.24, 1.58, 8.27, repro,
2010-01-18,6.12, 8.40, 5.01, 2.21, 1.56, 8.04, repro,
2010-01-19,6.68, 10.74, 8.66, 2.23, 1.58, 8.24, repro,
2010-01-20,7.21, 12.70, 3.21, 2.65, 1.82, 9.78, repro,
2010-01-21,5.36, 10.52, 2.15, 2.32, 1.64, 8.49, repro,
2010-01-22,3.75, 9.39, 2.06, 2.31, 1.59, 8.30, repro,
2010-01-23,3.60, 7.76, 1.86, 2.44, 1.69, 9.05, repro,
2010-01-24,2.21, 3.25, 5.44, 2.46, 1.73, 9.07, repro,
2010-01-25,2.96, 4.43, 12.85, 2.33, 1.63, 8.55, repro,
2010-01-26,6.65, 4.60, 4.02, 2.62, 1.82, 9.76, repro,
2010-01-27,7.65, 1.10, -3.38, 2.68, 1.91, 9.99, repro,
2010-01-28,6.15, 2.17, -10.22, 2.34, 1.65, 8.42, repro,
2010-01-29,6.30, 2.85, -10.75, 2.28, 1.60, 8.29, repro,
2010-01-30,4.59, 2.45, -3.40, 2.29, 1.62, 8.47, repro,
2010-01-31,6.03, 3.82, 1.27, 2.36, 1.66, 8.54, repro,
2010-02-01,6.54, 4.85, -0.18, 2.38, 1.70, 9.17, repro,
2010-02-02,5.33, 3.19, 0.63, 2.57, 1.76, 9.27, repro,
2010-02-03,7.37, 3.84, -5.33, 2.30, 1.59, 8.16, repro,
2010-02-04,5.88, 3.05, -6.86, 2.38, 1.69, 8.60, repro,
2010-02-05,5.76, 3.08, -4.17, 2.27, 1.62, 8.19, repro,
2010-02-06,6.65, 3.05, -5.70, 2.41, 1.71, 8.64, repro,
2010-02-07,6.99, 3.57, -11.01, 2.36, 1.65, 8.81, repro,
2010-02-08,4.98, 1.53, -6.83, 2.36, 1.65, 8.55, repro,
2010-02-09,8.04, 4.12, -0.67, 2.48, 1.74, 9.20, repro,
2010-02-10,6.18, 2.76, -3.94, 2.45, 1.70, 8.81, repro,
2010-02-11,3.58, 2.48, -5.24, 2.29, 1.65, 8.46, repro,
2010-02-12,4.00, 3.05, -8.92, 2.55, 1.74, 9.29, repro,
2010-02-13,4.24, 3.14, -7.61, 2.54, 1.81, 9.33, repro,
2010-02-14,3.31, 3.56, -7.16, 2.49, 1.71, 9.28, repro,
2010-02-15,1.41, 4.20, -20.74, 3.27, 2.11, 11.82, repro,
2010-02-16,2.28, 3.10, -9.57, 2.70, 1.86, 10.36, repro,
2010-02-17,2.91, 3.31, -13.40, 2.61, 1.83, 9.74, repro,
2010-02-18,3.45, 0.98, -7.57, 2.38, 1.69, 8.58, repro,
2010-02-19,3.68, 1.84, -11.34, 2.36, 1.67, 8.65, repro,
2010-02-20,3.86, 2.34, -9.86, 2.28, 1.63, 8.40, repro,
2010-02-21,4.31, 2.76, -8.85, 2.27, 1.62, 8.41, repro,
2010-02-22,2.32, 1.72, -8.56, 2.53, 1.82, 9.98, repro,
2010-02-23,1.61, 0.27, -13.77, 2.45, 1.70, 9.18, repro,
2010-02-24,3.66, 0.04, -11.21, 2.37, 1.68, 8.55, repro,
2010-02-25,3.42, 1.67, -8.41, 2.40, 1.70, 8.89, repro,
2010-02-26,1.55, 0.42, -3.34, 2.34, 1.68, 8.61, repro,
2010-02-27,1.14, 1.60, 0.73, 2.31, 1.67, 8.47, repro,
2010-02-28,1.67, 2.00, -5.04, 2.36, 1.65, 8.86, repro,
2010-03-01,2.39, 2.79, -0.51, 2.30, 1.65, 8.51, repro,
2010-03-02,3.12, 1.08, 8.26, 2.29, 1.63, 8.33, repro,
2010-03-03,2.27, 1.09, -0.94, 2.35, 1.72, 8.59, repro,
2010-03-04,-0.51, 1.93, 3.32, 2.30, 1.63, 8.30, repro,
2010-03-05,0.16, 1.67, 2.34, 2.26, 1.60, 8.33, repro,
2010-03-06,0.61, 2.88, 3.47, 2.96, 2.09, 10.90, repro,
2010-03-07,1.26, 1.49, -4.01, 2.75, 1.97, 10.06, repro,
2010-03-08,2.30, 0.82, -7.96, 2.32, 1.63, 8.36, repro,
2010-03-09,0.12, 1.25, -9.23, 2.23, 1.59, 8.18, repro,
2010-03-10,-1.55, -0.29, 0.82, 2.50, 1.79, 9.32, repro,
2010-03-11,2.12, -0.08, -1.88, 2.42, 1.70, 8.59, repro,
2010-03-12,0.10, 0.69, -2.57, 2.39, 1.66, 8.57, repro,
2010-03-13,0.38, 1.66, -10.62, 2.37, 1.67, 8.45, repro,
2010-03-14,0.89, 1.84, -10.84, 2.43, 1.71, 8.99, repro,
2010-03-15,1.20, 1.88, -9.60, 2.24, 1.60, 8.13, repro,
2010-03-16,0.21, 2.64, -4.74, 2.25, 1.61, 8.14, repro,
2010-03-17,0.12, 2.32, -3.16, 2.30, 1.61, 8.26, repro,
2010-03-18,-2.44, 1.44, -6.85, 2.36, 1.65, 8.48, repro,
2010-03-19,-2.81, 1.74, -6.74, 2.27, 1.62, 8.21, repro,
2010-03-20,0.09, 2.25, -7.61, 2.30, 1.64, 8.52, repro,
2010-03-21,0.95, 2.52, -12.71, 2.25, 1.61, 8.24, repro,
2010-03-22,-0.42, 2.46, -16.67, 2.20, 1.56, 7.95, repro,
2010-03-23,-1.91, 1.07, -9.84, 2.21, 1.57, 8.01, repro,
2010-03-24,0.90, 1.77, -13.50, 2.35, 1.65, 8.53, repro,
2010-03-25,1.94, 1.98, -11.88, 2.29, 1.62, 8.45, repro,
2010-03-26,3.19, 2.15, -15.82, 2.31, 1.63, 8.49, repro,
2010-03-27,0.96, 1.49, -14.46, 2.32, 1.62, 8.36, repro,
2010-03-28,0.95, 0.03, -11.87, 2.36, 1.66, 8.67, repro,
2010-03-29,1.15, 0.89, -6.76, 2.38, 1.65, 8.58, repro,
2010-03-30,1.18, 0.14, -6.87, 2.53, 1.77, 9.08, repro,
2010-03-31,-0.04, 1.06, -7.81, 2.43, 1.73, 8.66, repro,
2010-04-01,0.62, 1.56, -9.82, 2.46, 1.71, 8.74, repro,
2010-04-02,0.89, 1.01, -8.08, 2.71, 1.86, 9.59, repro,
2010-04-03,-0.05, 2.19, -10.12, 2.61, 1.80, 9.40, repro,
2010-04-04,0.30, 1.44, -11.44, 2.62, 1.76, 9.27, repro,
2010-04-05,-0.01, 1.95, -3.54, 2.70, 1.92, 9.39, repro,
2010-04-06,0.97, 1.24, -7.11, 3.13, 2.08, 10.92, repro,
2010-04-07,-0.55, 0.51, -1.39, 2.77, 1.92, 9.91, repro,
2010-04-08,-1.80, 1.00, -6.93, 2.48, 1.73, 9.23, repro,
2010-04-09,0.18, 0.82, -6.70, 2.48, 1.74, 8.87, repro,
2010-04-10,0.10, 1.10, -5.56, 2.47, 1.70, 9.15, repro,
2010-04-11,-1.59, 2.22, -9.79, 2.83, 1.93, 10.38, repro,
2010-04-12,-1.29, 3.66, -5.30, 2.41, 1.74, 8.88, repro,
2010-04-13,0.32, 1.64, -1.75, 2.31, 1.64, 8.31, repro,
2010-04-14,-0.00, 1.00, -5.10, 2.49, 1.75, 8.79, repro,
2010-04-15,-2.61, 1.45, -2.11, 2.36, 1.66, 8.52, repro,
2010-04-16,-1.81, 1.91, -2.71, 2.25, 1.58, 8.13, repro,
2010-04-17,0.17, 2.01, -4.66, 2.29, 1.62, 8.21, repro,
2010-04-18,-0.83, 1.27, 2.35, 2.25, 1.59, 8.06, repro,
2010-04-19,0.99, 3.15, -4.32, 2.34, 1.65, 8.55, repro,
2010-04-20,-0.63, 0.67, -8.48, 2.52, 1.76, 9.16, repro,
2010-04-21,0.53, 2.12, -1.23, 2.38, 1.66, 8.60, repro,
2010-04-22,-0.95, 0.31, 1.01, 2.41, 1.69, 8.61, repro,
2010-04-23,-1.59, 2.23, 0.45, 2.59, 1.75, 9.48, repro,
2010-04-24,-1.02, 2.51, -7.37, 2.29, 1.65, 8.34, repro,
2010-04-25,1.11, 1.62, 0.33, 2.30, 1.62, 8.26, repro,
2010-04-26,2.17, 1.72, 3.79, 2.28, 1.61, 8.23, repro,
2010-04-27,2.23, 3.35, 0.95, 2.34, 1.64, 8.53, repro,
2010-04-28,0.58, 4.03, 1.85, 2.36, 1.65, 8.39, repro,
2010-04-29,0.35, 2.25, -2.13, 2.44, 1.77, 9.19, repro,
2010-04-30,-0.02, 2.78, -3.84, 2.35, 1.68, 8.38, repro,
2010-05-01,0.11, 1.73, -0.03, 2.27, 1.60, 8.14, repro,
2010-05-02,0.10, 2.73, -2.75, 2.65, 1.90, 9.54, repro,
2010-05-03,-0.59, 3.10, -8.20, 2.67, 1.85, 9.82, repro,
2010-05-04,1.87, 2.88, -1.05, 2.64, 1.92, 10.49, repro,
2010-05-05,1.10, 2.82, 0.88, 2.39, 1.70, 8.72, repro,
2010-05-06,2.52, 0.98, -4.62, 2.47, 1.74, 9.17, repro,
2010-05-07,3.80, 3.86, 0.75, 2.42, 1.64, 8.61, repro,
2010-05-08,4.32, 3.63, -3.80, 2.34, 1.64, 8.35, repro,
2010-05-09,3.61, 3.53, 1.95, 2.28, 1.61, 8.16, repro,
2010-05-10,1.58, 3.41, 1.59, 2.30, 1.64, 8.53, repro,
2010-05-11,0.61, 2.84, 4.49, 2.43, 1.72, 8.56, repro,
2010-05-12,0.86, 4.31, 4.86, 2.39, 1.68, 8.43, repro,
2010-05-13,0.85, 4.07, -0.16, 2.31, 1.62, 8.20, repro,
2010-05-14,1.41, 3.89, -5.93, 2.29, 1.64, 8.12, repro,
2010-05-15,1.63, 3.70, 3.10, 2.34, 1.65, 8.24, repro,
2010-05-16,0.39, 3.99, -1.48, 2.32, 1.63, 8.21, repro,
2010-05-17,3.50, 4.22, -2.27, 2.40, 1.67, 8.53, repro,
2010-05-18,2.12, 5.82, -1.27, 2.48, 1.79, 9.20, repro,
2010-05-19,2.93, 5.70, 0.93, 2.40, 1.67, 8.81, repro,
2010-05-20,0.80, 5.20, -4.16, 2.51, 1.78, 9.03, repro,
2010-05-21,2.38, 3.11, -4.15, 2.32, 1.62, 8.41, repro,
2010-05-22,5.61, 1.76, -5.63, 2.34, 1.65, 8.54, repro,
2010-05-23,5.28, 2.15, -8.21, 2.38, 1.67, 8.80, repro,
2010-05-24,4.89, 2.94, -5.83, 2.31, 1.62, 8.34, repro,
2010-05-25,6.24, 2.39, -4.38, 2.30, 1.62, 8.20, repro,
2010-05-26,4.46, 2.08, -6.78, 2.31, 1.63, 8.35, repro,
2010-05-27,4.91, 1.67, -6.80, 2.30, 1.64, 8.38, repro,
2010-05-28,3.32, 3.02, -1.70, 2.39, 1.72, 8.51, repro,
2010-05-29,2.93, 3.87, -2.61, 2.97, 2.02, 10.54, repro,
2010-05-30,3.46, 2.82, -0.49, 2.64, 1.92, 9.65, repro,
2010-05-31,5.57, 1.91, -4.03, 2.94, 2.10, 10.98, repro,
2010-06-01,4.48, 3.18, 0.66, 2.49, 1.81, 8.89, repro,
2010-06-02,4.18, 2.62, 1.06, 2.36, 1.65, 8.21, repro,
2010-06-03,5.29, 2.73, -2.16, 2.62, 1.86, 9.71, repro,
2010-06-04,5.48, 3.45, -3.57, 2.55, 1.79, 9.09, repro,
2010-06-05,4.48, 2.59, -5.93, 2.36, 1.67, 8.62, repro,
2010-06-06,7.65, 2.71, -6.48, 2.41, 1.77, 8.85, repro,
2010-06-07,5.96, 2.11, -1.62, 2.25, 1.60, 8.00, repro,
2010-06-08,5.40, 3.48, -1.95, 2.29, 1.60, 8.20, repro,
2010-06-09,5.18, 3.24, -1.70, 2.32, 1.68, 8.49, repro,
2010-06-10,2.76, 3.43, 1.69, 2.30, 1.63, 8.35, repro,
2010-06-11,4.69, 3.77, -4.66, 2.43, 1.76, 9.01, repro,
2010-06-12,2.87, 3.14, -2.28, 2.32, 1.65, 8.52, repro,
2010-06-13,2.82, 2.79, -2.57, 2.40, 1.69, 8.61, repro,
2010-06-14,2.83, 4.02, -2.59, 2.32, 1.69, 8.52, repro,
2010-06-15,3.45, 5.03, -5.38, 2.39, 1.71, 8.68, repro,
2010-06-16,3.15, 3.48, -5.26, 2.70, 1.91, 9.26, repro,
2010-06-17,2.53, 2.41, -2.45, 2.55, 1.81, 9.14, repro,
2010-06-18,3.95, 2.08, -4.82, 2.35, 1.64, 8.29, repro,
2010-06-19,3.73, 1.98, -2.39, 2.27, 1.60, 8.08, repro,
2010-06-20,4.46, 1.23, 0.27, 2.36, 1.68, 8.51, repro,
2010-06-21,5.38, 2.61, -1.48, 2.31, 1.63, 8.31, repro,
2010-06-22,5.10, 1.91, 1.30, 2.39, 1.74, 8.80, repro,
2010-06-23,2.80, 2.05, -3.95, 2.43, 1.74, 9.19, repro,
2010-06-24,3.96, 1.13, -4.68, 2.36, 1.66, 8.74, repro,
2010-06-25,5.58, 0.94, 1.76, 2.43, 1.72, 9.10, repro,
2010-06-26,4.57, 1.55, -4.09, 2.79, 2.05, 9.76, repro,
2010-06-27,4.17, 1.76, -5.65, 2.55, 1.83, 8.97, repro,
2010-06-28,4.27, 0.37, -2.12, 2.28, 1.59, 7.96, repro,
2010-06-29,4.20, 1.91, -4.28, 2.40, 1.73, 8.84, repro,
2010-06-30,6.12, 4.43, -4.26, 2.51, 1.74, 9.03, repro,
2010-07-01,4.12, 2.85, 6.82, 2.46, 1.71, 8.89, repro,
2010-07-02,4.70, 2.65, 5.07, 2.45, 1.73, 8.79, repro,
2010-07-03,3.92, 3.15, -0.37, 2.28, 1.62, 7.99, repro,
2010-07-04,3.62, 2.12, -0.50, 2.28, 1.61, 7.99, repro,
2010-07-05,3.39, 1.57, -5.49, 2.31, 1.64, 8.09, repro,
2010-07-06,2.96, 2.81, 2.59, 2.25, 1.63, 8.09, repro,
2010-07-07,2.71, 2.69, 2.86, 2.27, 1.64, 8.20, repro,
2010-07-08,4.73, 2.79, 3.20, 2.37, 1.70, 8.57, repro,
2010-07-09,3.90, 2.04, 3.62, 2.28, 1.61, 8.12, repro,
2010-07-10,1.84, 2.45, 1.84, 2.22, 1.59, 7.91, repro,
2010-07-11,2.02, 0.85, 2.64, 2.29, 1.63, 8.24, repro,
2010-07-12,3.97, 1.36, 5.62, 2.29, 1.62, 8.03, repro,
2010-07-13,2.29, 1.26, 4.31, 2.27, 1.61, 8.09, repro,
2010-07-14,3.94, 0.67, 1.00, 2.37, 1.69, 8.64, repro,
2010-07-15,2.15, 1.58, 4.68, 2.41, 1.70, 8.76, repro,
2010-07-16,3.20, 1.69, 6.67, 2.25, 1.59, 8.03, repro,
2010-07-17,2.54, 1.76, 8.15, 2.34, 1.68, 8.10, repro,
2010-07-18,2.26, 2.16, 5.98, 2.30, 1.65, 8.08, repro,
2010-07-19,3.56, 0.81, 4.85, 2.24, 1.58, 7.99, repro,
2010-07-20,2.25, -0.29, 4.11, 2.32, 1.66, 8.26, repro,
2010-07-21,5.77, 1.06, 9.94, 2.29, 1.61, 8.11, repro,
2010-07-22,2.47, 0.90, 13.22, 2.30, 1.61, 8.07, repro,
2010-07-23,2.31, 1.96, 14.38, 2.23, 1.58, 7.96, repro,
2010-07-24,2.53, 1.01, 11.00, 2.26, 1.62, 8.06, repro,
2010-07-25,2.45, 1.31, 9.75, 2.38, 1.70, 8.31, repro,
2010-07-26,0.46, 1.07, 11.71, 2.27, 1.63, 8.13, repro,
2010-07-27,1.87, 1.74, 6.27, 2.48, 1.75, 8.68, repro,
2010-07-28,3.76, 0.16, 15.15, 2.50, 1.71, 8.62, repro,
2010-07-29,4.42, 1.22, 10.66, 2.32, 1.62, 8.32, repro,
2010-07-30,3.07, 2.90, 12.37, 2.43, 1.71, 8.85, repro,
2010-07-31,3.05, 0.84, 15.72, 2.29, 1.62, 8.23, repro,
2010-08-01,2.29, -0.64, 16.07, 2.25, 1.59, 7.95, repro,
2010-08-02,2.89, 0.52, 9.83, 2.35, 1.66, 8.22, repro,
2010-08-03,1.61, 1.19, 13.56, 2.35, 1.72, 8.54, repro,
2010-08-04,2.62, 2.59, 12.70, 2.79, 1.95, 10.11, repro,
2010-08-05,2.86, 1.41, 15.06, 2.27, 1.63, 8.15, repro,
2010-08-06,1.52, -0.38, 11.80, 2.30, 1.65, 8.25, repro,
2010-08-07,1.23, 0.44, 9.22, 2.23, 1.58, 7.92, repro,
2010-08-08,1.90, 0.13, 9.04, 2.23, 1.58, 7.91, repro,
2010-08-09,1.22, 0.37, 7.73, 2.29, 1.63, 7.99, repro,
2010-08-10,2.54, 1.80, 15.60, 2.31, 1.63, 8.29, repro,
2010-08-11,0.34, 0.16, 12.36, 2.40, 1.72, 8.52, repro,
2010-08-12,0.13, 1.01, 13.41, 2.30, 1.65, 8.32, repro,
2010-08-13,-1.70, 0.14, 7.77, 2.26, 1.62, 8.03, repro,
2010-08-14,0.42, 1.13, 13.79, 2.23, 1.57, 7.88, repro,
2010-08-15,-0.02, 2.38, 14.66, 2.37, 1.69, 8.56, repro,
2010-08-16,0.17, 1.55, 9.74, 2.31, 1.65, 8.07, repro,
2010-08-17,1.28, -0.29, 8.31, 2.31, 1.64, 8.24, repro,
2010-08-18,3.13, -1.04, 7.91, 2.27, 1.61, 8.06, repro,
2010-08-19,1.71, 1.32, 8.83, 2.28, 1.61, 8.20, repro,
2010-08-20,1.69, -0.40, 10.86, 2.29, 1.62, 8.23, repro,
2010-08-21,1.40, -0.74, 9.37, 2.23, 1.61, 8.09, repro,
2010-08-22,0.22, 0.34, 6.74, 2.23, 1.59, 7.94, repro,
2010-08-23,-0.63, -0.32, 11.73, 2.28, 1.67, 8.07, repro,
2010-08-24,0.91, 2.04, 13.84, 2.42, 1.70, 8.32, repro,
2010-08-25,0.58, 2.13, 16.24, 2.63, 1.82, 9.20, repro,
2010-08-26,0.58, -0.67, 14.05, 2.34, 1.69, 8.48, repro,
2010-08-27,-1.49, 0.57, 20.07, 2.51, 1.74, 8.94, repro,
2010-08-28,0.39, 0.61, 12.06, 2.24, 1.63, 7.93, repro,
2010-08-29,-0.86, 1.86, 17.40, 2.19, 1.59, 7.76, repro,
2010-08-30,1.80, 2.42, 16.05, 2.22, 1.56, 7.77, repro,
2010-08-31,-0.45, 0.38, 16.69, 2.28, 1.62, 8.19, repro,
2010-09-01,-2.72, 1.11, 12.96, 2.25, 1.62, 7.97, repro,
2010-09-02,-3.19, 2.07, 14.17, 2.27, 1.62, 7.94, repro,
2010-09-03,-0.65, 1.20, 9.09, 2.24, 1.62, 7.97, repro,
2010-09-04,0.46, 2.41, 14.85, 2.25, 1.62, 7.89, repro,
2010-09-05,0.79, 1.45, 11.80, 2.25, 1.60, 7.87, repro,
2010-09-06,-2.57, 0.66, 9.09, 2.33, 1.67, 8.41, repro,
2010-09-07,-0.39, 1.85, 9.40, 2.29, 1.64, 8.05, repro,
2010-09-08,-0.88, 2.85, 3.13, 2.40, 1.79, 8.63, repro,
2010-09-09,2.20, 2.64, 8.69, 2.23, 1.60, 7.83, repro,
2010-09-10,0.14, 2.77, 11.59, 2.25, 1.63, 8.05, repro,
2010-09-11,-1.89, 2.50, 13.36, 2.23, 1.64, 7.98, repro,
2010-09-12,-2.96, 0.71, 22.52, 2.22, 1.62, 7.98, repro,
2010-09-13,-2.96, 1.97, 15.20, 2.20, 1.58, 7.89, repro,
2010-09-14,-1.52, 2.43, 9.79, 2.55, 1.82, 8.82, repro,
2010-09-15,1.80, 1.74, 10.69, 2.26, 1.61, 8.06, repro,
2010-09-16,0.79, 0.87, 12.21, 2.27, 1.64, 8.07, repro,
2010-09-17,-0.50, 1.67, 15.48, 2.21, 1.59, 7.84, repro,
2010-09-18,-0.30, 1.01, 15.43, 2.20, 1.62, 7.88, repro,
2010-09-19,-1.61, 1.25, 13.72, 2.18, 1.59, 7.83, repro,
2010-09-20,-1.60, 2.32, 18.20, 2.27, 1.63, 8.06, repro,
2010-09-21,-0.12, 1.80, 14.71, 2.24, 1.60, 8.26, repro,
2010-09-22,-0.61, 2.70, 13.29, 2.26, 1.62, 8.24, repro,
2010-09-23,-0.79, 1.86, 14.49, 2.30, 1.64, 7.99, repro,
2010-09-24,-1.28, 1.13, 16.29, 2.71, 1.92, 9.27, repro,
2010-09-25,-0.16, 1.54, 20.26, 2.33, 1.66, 8.09, repro,
2010-09-26,1.27, 4.42, 13.13, 2.37, 1.73, 8.27, repro,
2010-09-27,-4.06, 1.90, 22.46, 2.39, 1.69, 8.36, repro,
2010-09-28,-2.92, 1.78, 20.90, 2.32, 1.64, 8.22, repro,
2010-09-29,-2.07, 3.89, 17.26, 2.25, 1.59, 7.98, repro,
2010-09-30,-1.53, 2.55, 17.76, 2.22, 1.59, 7.82, repro,
2010-10-01,-2.16, 3.49, 17.83, 2.26, 1.63, 8.08, repro,
2010-10-02,-3.12, 2.87, 18.28, 2.27, 1.63, 8.02, repro,
2010-10-03,-1.68, 2.80, 19.95, 2.25, 1.61, 8.02, repro,
2010-10-04,-1.28, 3.40, 23.36, 2.24, 1.59, 7.93, repro,
2010-10-05,-1.61, 3.41, 20.26, 2.30, 1.62, 8.05, repro,
2010-10-06,0.61, 3.56, 24.50, 2.38, 1.71, 8.46, repro,
2010-10-07,0.09, 5.11, 15.69, 2.24, 1.60, 7.99, repro,
2010-10-08,0.54, 4.76, 7.21, 2.34, 1.65, 8.23, repro,